Regional Weather Roundup
Issued by NWS

Home | Current Version | Previous Version | Graphics & Text | Print | Product List | Glossary On
Versions: 1 2 3 4 5 6 7 8 9 10 11 12 13 14 15 16 17 18 19 20 21 22 23 24 25 26 27 28 29 30 31 32 33 34 35 36 37 38 39 40 41 42 43 44 45 46 47 48 49 50
000
ASUS43 KBIS 300610
RWRND

NORTH DAKOTA REGIONAL WEATHER ROUNDUP
NATIONAL WEATHER SERVICE BISMARCK ND
100 AM CDT TUE SEP 30 2014

NOTE: "FAIR" INDICATES FEW OR NO CLOUDS BELOW 12,000 FEET WITH NO
SIGNIFICANT WEATHER AND/OR OBSTRUCTIONS TO VISIBILITY.


NDZ001>003-009>011-017-300700-
NORTHWEST NORTH DAKOTA

CITY           SKY/WX    TMP DP  RH WIND       PRES   REMARKS
WILLISTON      CLOUDY    53  48  83 SE8       29.85F
6HR MIN TEMP:  51; 6HR MAX TEMP:  53; 6HR PCP: TRACE;

MINOT          CLOUDY    52  46  80 SE14      29.92F
MINOT AFB      CLOUDY    52  49  90 SE14      29.92F
$$

NDZ018>021-031>035-040>046-300700-
SOUTHWEST NORTH DAKOTA

CITY           SKY/WX    TMP DP  RH WIND       PRES   REMARKS
BISMARCK       CLOUDY    55  49  80 E9        29.92F
6HR MIN TEMP:  55; 6HR MAX TEMP:  58;

DICKINSON      CLOUDY    51  49  92 SE15      29.84F
GARRISON         N/A     53  49  86 SE10      29.90F
6HR MIN TEMP:  53; 6HR MAX TEMP:  54;

HETTINGER ARPT CLOUDY    51  49  92 E15       29.85F
$$

NDZ004>008-012>016-024-026-027-054-300700-
NORTHEAST NORTH DAKOTA

CITY           SKY/WX    TMP DP  RH WIND       PRES   REMARKS
GRAND FORKS    CLEAR     46  43  89 SE8       30.05S
GRND FRKS AFB  CLEAR     44  43  99 SE7       30.05F
DEVILS LAKE    PTCLDY    48  41  76 E10       29.98F
$$

NDZ022-023-025-028>030-036>039-047>053-300700-
SOUTHEAST NORTH DAKOTA

CITY           SKY/WX    TMP DP  RH WIND       PRES   REMARKS
FARGO          CLEAR     47  43  86 SE7       30.05F
6HR MIN TEMP:  47; 6HR MAX TEMP:  60;

JAMESTOWN      PTCLDY    49  46  90 SE12      29.98F
$$



USA.gov is the U.S. government's official web portal to all federal, state and local government web resources and services.